Temperature
18 17 17 17 16 16 16 16 16 16 16 15 15 15 16 16 16 16 16 16 15 15 14 14 14 13 13 13 13 12 12 12 11 11 11 11 11 11 11 11 11 11 11
16 16 15 15 15 15 15 15 16 16 16 15 15 15 15 15 16 16 16 16 15 15 14 14 13 13 13 13 12 12 12 12 11 11 11 10 10 11 11 11 11 11 11
15 14 14 13 14 14 14 14 15 15 15 15 15 15 15 15 14 15 15 15 15 15 14 14 13 13 12 12 12 12 12 12 11 11 11 11 11 11 11 11 11 11 10
13 13 12 12 12 12 13 14 14 14 15 15 15 15 14 14 14 14 14 14 14 14 14 13 13 13 12 12 12 12 12 11 11 11 11 11 11 11 11 11 10 10 9
12 11 11 11 11 12 12 13 13 13 14 14 14 14 14 13 13 13 13 13 13 13 13 13 12 12 12 12 12 12 12 11 11 11 11 10 10 10 11 10 10 10 9
11 11 10 10 10 11 11 12 12 12 12 13 13 13 13 13 13 13 13 13 13 12 12 12 12 12 12 11 11 11 11 11 11 11 11 10 10 10 10 10 10 10 9
11 10 10 10 10 10 10 10 11 11 11 11 11 11 11 12 12 12 12 12 12 12 12 12 12 12 11 11 11 11 11 11 11 11 10 10 10 10 10 9 9 8 8
10 10 9 9 9 9 10 10 10 10 10 10 10 10 10 10 11 11 11 11 11 11 11 11 11 11 11 11 11 10 10 10 10 10 10 10 9 9 9 9 8 7 7
10 9 9 9 9 9 9 9 9 9 9 9 9 9 9 9 10 10 10 10 10 10 10 10 10 10 10 10 10 10 10 10 10 9 9 9 9 9 8 8 8 7 6
10 9 9 8 8 8 8 8 8 8 8 8 8 8 8 8 8 9 9 9 9 9 9 9 10 10 10 10 9 9 9 9 9 9 8 8 8 8 8 7 7 6 5
9 8 8 7 7 7 7 7 7 7 7 7 7 7 7 7 8 8 8 8 8 8 8 8 9 9 9 8 8 8 8 8 8 8 7 7 7 7 6 6 5 5 4
9 8 7 7 6 6 6 6 6 6 6 6 6 6 6 6 7 7 7 7 7 7 7 7 8 8 7 7 7 7 7 7 7 6 6 6 5 5 5 4 4 3 3
8 7 6 6 5 5 5 5 5 5 5 5 5 5 5 5 6 6 6 6 6 6 6 6 6 6 6 6 6 6 6 5 5 5 4 4 4 4 3 3 2 2 2
8 7 6 5 5 4 4 4 4 4 4 4 5 5 5 5 5 5 5 5 5 5 5 5 5 5 5 4 4 4 4 4 3 3 3 2 2 2 1 1 1 0 0
7 6 5 4 4 3 3 3 3 3 3 4 4 4 3 3 3 4 4 4 4 4 3 3 3 3 3 3 3 3 3 2 2 2 1 1 1 0 -0 -0 -1 -1 -1
7 5 4 4 3 3 2 3 3 2 2 3 3 3 2 2 3 3 3 3 2 2 2 2 2 2 2 1 1 1 1 1 1 0 -0 -0 -1 -1 -1 -1 -2 -2 -2
6 5 4 3 2 2 2 2 2 2 2 2 2 2 2 2 2 2 2 1 1 1 1 1 1 1 0 0 0 -0 -0 -0 -1 -1 -1 -1 -2 -2 -2 -3 -3 -3 -4
5 4 3 2 2 2 1 1 1 1 1 1 1 1 1 1 1 1 1 1 0 0 0 -0 -0 -0 -1 -1 -1 -1 -1 -1 -2 -2 -2 -3 -3 -3 -3 -4 -4 -4 -4
5 4 3 2 1 1 1 0 0 1 1 1 0 0 1 1 1 0 0 0 -0 -0 -0 -1 -1 -1 -1 -1 -2 -2 -2 -3 -3 -3 -3 -3 -4 -4 -5 -5 -5 -5 -6
4 3 2 2 1 1 0 0 0 0 0 0 0 0 0 0 0 0 -0 -0 -0 -1 -1 -1 -2 -2 -2 -2 -3 -3 -3 -3 -4 -4 -4 -5 -5 -5 -5 -6 -6 -6 -6
3 3 2 1 1 0 -0 -0 0 0 0 -0 -0 -0 -0 0 -0 -0 -0 -1 -1 -1 -2 -2 -2 -2 -3 -3 -3 -4 -4 -4 -5 -5 -5 -5 -6 -6 -6 -6 -6 -6 -6
3 2 2 1 1 0 0 0 -0 0 -0 -0 -0 -0 -0 -0 -0 -0 -1 -1 -1 -2 -2 -3 -3 -3 -3 -4 -4 -4 -5 -5 -5 -5 -5 -6 -6 -6 -6 -6 -6 -6 -6
3 2 2 1 1 0 0 0 0 0 -0 -0 -0 -0 -0 -0 -0 -1 -1 -1 -2 -2 -3 -3 -3 -3 -4 -4 -4 -5 -5 -5 -5 -6 -6 -6 -6 -6 -6 -6 -6 -6 -6
3 2 2 1 1 1 0 0 0 -0 -0 -0 -0 -0 -0 -0 -1 -1 -1 -1 -2 -2 -2 -3 -3 -4 -4 -4 -5 -5 -5 -5 -6 -6 -6 -6 -6 -6 -6 -6 -7 -7 -7
3 2 2 2 1 1 1 0 0 -0 -0 -0 -0 -0 -0 -0 -1 -1 -1 -1 -2 -2 -2 -3 -3 -4 -4 -4 -5 -5 -5 -6 -6 -6 -6 -6 -6 -6 -7 -7 -7 -7 -7
3 2 2 2 1 1 1 1 0 0 -0 -0 -0 -0 -0 -0 -1 -1 -1 -2 -2 -2 -3 -3 -3 -4 -4 -5 -5 -5 -5 -6 -6 -6 -6 -6 -7 -7 -7 -7 -7 -7 -7
Wind_Speed
2 3 4 4 4 3 3 4 3 2 3 3 4 5 6 6 5 5 9 10 11 12 10 6 7 7 8 8 8 6 7 6 5 3 2 3 4 6 6 6 6 9 16
3 5 4 4 4 4 5 4 4 4 2 1 1 3 4 5 6 6 7 11 10 10 8 7 8 8 8 9 10 8 6 6 6 5 3 3 4 6 8 6 7 7 11
3 5 5 6 6 6 6 6 6 5 5 4 3 3 2 2 3 5 6 8 11 11 10 8 7 8 9 9 10 10 10 8 7 6 5 5 7 5 5 8 8 7 7
5 6 6 6 6 5 6 6 6 5 5 5 3 3 3 4 5 4 5 7 9 10 12 10 9 9 8 9 10 11 9 9 8 7 7 5 4 4 3 3 4 5 5
6 6 6 5 5 5 5 5 5 5 5 5 4 4 4 4 4 4 5 5 5 6 8 9 8 10 9 9 10 10 11 10 10 8 5 7 5 3 4 4 3 3 3
6 6 5 5 5 4 4 5 5 5 5 5 5 4 4 5 5 6 5 5 4 3 5 5 7 8 9 10 10 10 11 11 11 10 8 6 5 6 5 4 3 3 1
5 5 5 5 5 5 5 6 6 6 7 7 6 6 5 5 5 5 5 5 4 3 4 4 4 5 7 8 8 9 10 11 11 11 9 8 7 4 4 5 3 3 1
6 5 5 4 4 6 6 7 7 7 7 7 7 7 7 5 4 5 4 5 4 4 5 4 3 4 4 4 5 6 7 7 8 9 8 6 5 4 4 4 5 4 2
6 5 5 5 6 6 6 6 7 6 7 7 7 7 7 6 6 6 5 4 5 5 6 5 4 4 3 3 3 3 3 3 3 4 4 3 2 2 2 3 4 6 6
5 5 5 5 5 5 5 6 7 7 7 7 6 6 7 7 6 6 6 6 7 7 6 6 6 5 5 4 3 2 2 2 2 2 3 4 4 4 3 3 2 2 3
5 5 4 4 4 4 5 6 6 7 7 7 7 7 7 7 7 7 8 7 7 8 8 7 7 7 7 6 5 5 5 6 6 6 7 7 6 5 4 4 4 3 2
5 4 4 3 4 5 5 5 6 6 6 6 7 7 7 8 8 8 9 9 9 9 9 9 9 10 9 9 8 8 8 7 7 8 8 7 6 7 5 5 5 4 4
5 4 4 4 4 4 4 5 6 6 6 6 7 7 8 8 9 9 9 9 10 10 11 11 11 11 10 10 10 10 10 10 9 9 8 7 8 7 6 6 5 4 4
5 4 3 3 4 4 5 5 6 6 6 7 7 7 8 8 8 8 9 10 10 11 11 11 11 11 11 11 10 11 11 11 11 10 9 8 8 7 6 5 4 4 3
5 5 4 3 3 4 5 5 5 6 6 6 7 7 7 7 8 9 9 10 11 11 10 11 11 10 10 10 11 10 11 11 11 10 9 8 9 9 6 4 3 3 2
6 6 5 4 4 4 4 5 5 5 6 6 6 6 7 7 8 8 9 10 10 10 11 11 11 11 10 15 16 12 9 9 8 8 7 7 8 8 8 7 5 3 2
6 6 5 5 5 4 4 5 5 5 6 6 6 6 6 7 8 8 9 9 9 9 10 9 10 10 12 16 15 14 8 8 7 6 5 5 6 6 4 4 4 3 3
6 6 6 5 5 5 5 5 5 6 6 6 6 6 6 7 7 8 8 8 7 7 7 8 8 8 10 14 13 12 8 7 6 5 5 4 4 4 4 4 3 3 3
6 6 6 6 5 5 5 5 5 6 6 5 5 6 6 6 6 7 7 6 6 7 6 6 7 7 8 11 11 9 4 4 4 4 4 4 4 6 6 4 4 4 4
6 6 6 6 6 5 5 5 6 6 5 5 5 6 6 6 6 6 5 5 5 5 5 5 5 6 5 9 10 9 4 4 3 2 2 4 5 7 7 4 3 4 4
7 7 6 5 5 5 6 6 6 5 5 5 5 5 5 5 5 5 4 4 4 4 4 5 5 5 6 7 9 9 5 4 3 3 3 3 7 8 8 7 3 5 5
7 6 6 5 5 5 6 6 6 5 4 5 5 5 4 4 4 4 3 3 3 4 3 3 4 4 4 5 6 8 7 6 4 3 2 4 8 9 9 6 6 8 7
7 6 6 6 5 5 6 7 6 5 5 5 5 4 4 4 4 4 2 2 2 2 2 3 3 2 2 3 6 7 7 7 4 3 7 8 9 8 6 7 8 6 3
7 7 7 7 6 6 6 6 7 6 6 6 5 4 4 4 3 3 2 2 3 3 3 3 2 1 2 3 3 4 5 6 5 4 7 10 9 6 6 6 5 3 3
8 8 8 8 8 7 7 7 7 7 6 6 5 4 4 4 4 3 3 3 3 3 2 2 2 2 2 3 6 5 3 3 4 5 4 4 3 3 3 4 4 3 4
8 8 8 8 8 8 7 7 7 7 7 6 5 4 3 3 3 3 2 4 3 3 3 2 1 2 3 5 7 8 8 9 9 6 4 4 4 4 4 4 5 4 5
Wind_Direction
129 72 41 24 5 344 321 307 293 246 212 202 197 197 204 209 218 230 240 239 230 220 214 209 209 209 212 210 205 202 204 206 180 168 211 251 226 213 208 203 194 186 183
58 60 48 39 21 12 4 344 337 333 325 285 232 210 207 212 215 216 226 235 243 240 226 218 216 213 215 213 210 208 204 202 183 167 158 223 251 249 224 207 206 197 186
68 73 61 53 44 33 12 353 350 346 341 340 340 327 299 250 222 226 225 222 226 234 236 230 225 222 217 220 216 212 209 212 204 190 178 186 216 220 227 218 209 201 193
77 69 59 51 50 39 13 354 351 350 344 339 320 288 266 256 246 238 232 226 221 222 225 229 228 229 227 224 221 217 215 210 213 217 223 218 183 179 208 247 220 202 196
99 93 80 70 64 47 16 353 349 354 352 345 332 313 295 284 290 291 276 262 243 229 225 224 224 229 231 231 228 224 220 217 216 209 211 232 245 218 178 209 221 214 205
119 108 97 84 71 49 20 355 357 3 4 357 345 337 319 314 315 310 303 295 285 265 246 238 231 231 230 231 232 231 228 226 223 218 207 199 208 214 207 201 188 202 213
120 98 80 62 57 45 22 8 13 11 9 4 356 347 337 325 313 310 311 312 307 300 284 266 256 252 243 237 234 234 235 231 227 225 222 215 216 198 200 205 174 162 151
109 98 83 62 51 43 28 17 13 11 10 4 355 351 350 344 334 331 325 320 315 315 321 307 293 283 276 266 251 246 244 240 233 230 222 217 213 197 187 182 165 166 184
118 104 85 65 48 38 28 16 11 14 14 6 358 356 356 353 346 342 340 334 341 344 351 350 349 346 341 330 302 273 267 259 249 231 206 193 163 147 148 144 167 177 192
130 108 87 71 53 41 29 23 19 20 16 10 7 10 4 359 358 0 3 5 8 9 8 10 13 15 18 19 20 11 16 64 53 61 90 92 91 92 92 110 112 151 176
120 99 83 76 65 51 41 32 25 25 19 13 14 15 10 8 11 21 22 22 24 23 24 25 29 32 32 33 46 53 59 72 72 72 83 83 85 88 79 80 87 80 102
110 102 93 80 67 54 43 41 35 31 22 18 23 23 22 24 29 30 29 32 34 34 36 40 45 44 42 42 50 59 65 73 79 80 86 87 88 84 79 80 78 75 61
129 119 106 90 72 58 48 48 44 37 30 30 34 34 33 35 36 35 36 40 44 44 44 48 51 51 51 52 56 63 65 68 70 72 79 82 88 84 80 80 81 76 69
133 122 108 99 89 74 63 56 49 44 46 46 44 42 40 41 43 43 45 46 49 51 51 53 55 56 58 59 61 67 70 70 67 66 68 70 76 82 81 80 81 83 80
145 136 128 108 93 83 75 67 58 48 55 59 54 51 50 50 52 52 52 54 56 58 57 58 58 58 62 65 69 69 73 73 71 67 65 68 74 76 75 81 76 74 73
149 141 138 126 105 89 82 79 72 62 65 66 62 58 60 59 59 61 62 63 62 62 63 62 62 62 67 75 77 80 74 75 74 71 67 69 63 61 62 66 62 55 52
141 144 142 128 111 98 88 87 85 78 75 73 68 64 65 66 65 69 67 64 63 66 68 67 66 66 67 71 73 75 75 72 68 63 56 55 59 55 35 25 25 10 351
139 138 130 122 115 106 99 96 94 91 86 80 76 75 76 74 72 73 72 68 67 68 69 70 71 70 65 66 66 69 70 71 67 60 51 44 39 40 24 8 0 335 318
125 124 125 125 118 111 110 107 99 94 90 84 80 81 84 84 80 77 76 75 77 73 70 69 70 72 63 60 57 54 58 69 66 65 58 43 24 13 9 9 349 336 324
117 120 121 120 119 119 118 114 105 96 90 85 86 87 90 92 89 86 84 83 86 85 82 74 71 74 64 55 49 44 45 43 33 30 48 50 21 359 356 2 347 330 325
125 127 128 124 124 124 119 114 106 104 102 97 95 95 94 96 98 94 90 94 94 90 85 82 75 72 65 51 43 40 43 24 15 15 16 10 359 348 340 339 330 310 318
140 139 134 125 118 121 123 122 124 124 118 112 108 103 98 98 97 93 88 96 103 101 91 86 73 58 55 53 37 30 27 23 18 4 2 344 340 336 333 330 318 321 328
154 145 142 137 132 134 139 142 147 144 137 130 126 123 117 109 110 106 95 88 86 91 83 83 82 51 36 37 27 15 8 7 6 341 334 329 328 329 329 324 324 329 326
159 156 156 158 160 158 155 156 155 157 150 144 143 141 132 122 108 96 74 68 61 60 62 66 60 23 22 33 17 2 356 358 355 344 329 326 322 321 311 315 321 309 279
163 167 171 173 169 165 162 158 160 160 155 152 152 146 139 133 114 93 73 82 78 89 86 75 55 42 8 348 347 344 333 332 316 327 323 319 326 336 334 330 323 319 319
167 172 178 175 168 165 165 165 167 168 164 160 161 159 151 142 139 134 106 89 120 95 80 76 39 348 326 329 333 331 329 327 325 332 326 322 330 330 328 326 325 325 322
Height
1502 1503 1505 1507 1508 1510 1512 1514 1516 1517 1518 1519 1520 1520 1521 1522 1523 1525 1526 1527 1527 1528 1528 1529 1530 1530 1531 1531 1533 1534 1534 1535 1537 1538 1537 1537 1537 1537 1537 1538 1538 1538 1538
1499 1501 1502 1504 1505 1507 1508 1509 1511 1512 1513 1514 1515 1516 1517 1517 1518 1519 1520 1521 1522 1523 1523 1523 1524 1525 1525 1526 1527 1528 1528 1529 1530 1531 1531 1531 1531 1529 1530 1530 1531 1532 1532
1498 1499 1500 1501 1502 1503 1504 1505 1506 1507 1508 1509 1510 1511 1512 1512 1513 1513 1514 1515 1516 1517 1517 1518 1518 1519 1520 1520 1521 1522 1522 1522 1523 1524 1524 1523 1521 1522 1523 1523 1524 1525 1525
1497 1498 1499 1500 1500 1500 1501 1501 1502 1503 1504 1504 1505 1506 1506 1507 1508 1509 1509 1510 1510 1510 1511 1511 1512 1512 1513 1513 1514 1515 1515 1516 1516 1516 1516 1517 1517 1517 1515 1515 1516 1517 1518
1497 1498 1499 1499 1498 1498 1498 1499 1499 1499 1500 1500 1500 1501 1501 1502 1503 1504 1504 1504 1505 1505 1505 1505 1505 1505 1506 1506 1507 1508 1508 1508 1508 1508 1508 1509 1510 1510 1509 1508 1509 1510 1510
1497 1498 1498 1498 1497 1497 1496 1496 1496 1496 1496 1497 1497 1497 1497 1497 1498 1498 1498 1499 1499 1499 1499 1499 1499 1499 1499 1499 1500 1500 1500 1500 1501 1501 1501 1501 1502 1502 1502 1501 1500 1502 1503
1496 1497 1497 1497 1496 1495 1495 1494 1494 1494 1494 1493 1493 1493 1493 1493 1493 1493 1493 1493 1493 1493 1493 1493 1493 1493 1493 1493 1493 1493 1493 1493 1493 1493 1493 1493 1494 1495 1496 1496 1494 1494 1495
1495 1495 1495 1495 1495 1494 1493 1493 1492 1492 1491 1490 1490 1490 1489 1489 1488 1488 1488 1488 1488 1487 1487 1487 1486 1486 1486 1486 1486 1485 1486 1486 1486 1486 1486 1486 1486 1487 1488 1489 1489 1488 1487
1493 1494 1494 1493 1493 1492 1491 1491 1490 1489 1488 1487 1487 1486 1485 1485 1484 1484 1483 1483 1482 1482 1481 1481 1481 1480 1480 1479 1479 1479 1479 1479 1479 1479 1479 1479 1479 1480 1480 1481 1482 1483 1481
1492 1492 1492 1492 1491 1490 1490 1489 1488 1486 1485 1484 1483 1482 1482 1481 1480 1479 1478 1478 1477 1476 1476 1475 1475 1474 1474 1474 1473 1473 1472 1472 1472 1472 1473 1473 1473 1474 1474 1474 1475 1476 1477
1490 1490 1490 1490 1489 1489 1488 1487 1485 1484 1483 1482 1481 1480 1479 1478 1477 1476 1475 1474 1473 1472 1471 1471 1470 1469 1469 1468 1467 1467 1467 1467 1467 1467 1468 1468 1468 1468 1468 1469 1469 1470 1471
1488 1488 1488 1488 1488 1487 1486 1485 1484 1482 1481 1480 1479 1477 1476 1475 1474 1473 1472 1471 1470 1469 1468 1467 1466 1465 1464 1464 1463 1463 1463 1463 1463 1463 1463 1463 1464 1464 1465 1465 1466 1467 1468
1486 1486 1486 1486 1486 1485 1484 1483 1482 1481 1479 1478 1477 1476 1474 1473 1472 1471 1469 1468 1467 1466 1465 1464 1463 1462 1462 1461 1460 1460 1460 1459 1460 1460 1461 1461 1461 1461 1462 1463 1464 1464 1465
1483 1484 1484 1484 1484 1483 1482 1481 1480 1479 1478 1477 1476 1475 1473 1472 1470 1469 1468 1467 1466 1465 1464 1463 1462 1461 1460 1460 1459 1459 1459 1458 1458 1459 1459 1460 1460 1460 1461 1462 1462 1463 1463
1481 1481 1482 1482 1481 1481 1480 1479 1479 1478 1477 1476 1475 1473 1472 1471 1470 1469 1467 1466 1465 1464 1464 1463 1462 1461 1460 1459 1459 1459 1459 1459 1459 1459 1459 1459 1460 1460 1461 1461 1461 1462 1462
1478 1478 1479 1479 1479 1479 1478 1478 1477 1476 1476 1475 1474 1473 1472 1471 1470 1469 1468 1467 1466 1465 1465 1464 1463 1462 1461 1461 1461 1460 1460 1460 1460 1460 1460 1460 1460 1460 1460 1461 1461 1461 1461
1475 1476 1476 1476 1476 1476 1476 1476 1476 1475 1475 1474 1474 1473 1472 1471 1470 1470 1469 1468 1468 1467 1466 1466 1465 1464 1463 1463 1462 1462 1462 1461 1461 1461 1461 1460 1460 1460 1460 1459 1459 1459 1458
1472 1473 1474 1474 1474 1474 1474 1475 1475 1474 1474 1474 1474 1473 1473 1472 1471 1471 1470 1470 1470 1469 1468 1468 1467 1466 1465 1465 1464 1464 1463 1462 1462 1462 1461 1461 1460 1459 1459 1458 1457 1457 1457
1469 1470 1471 1472 1472 1472 1473 1473 1474 1474 1474 1474 1474 1473 1473 1473 1473 1472 1472 1472 1471 1471 1470 1469 1469 1468 1467 1466 1466 1465 1464 1463 1462 1462 1461 1460 1459 1458 1458 1457 1456 1455 1455
1467 1468 1469 1470 1470 1471 1472 1472 1473 1473 1474 1474 1474 1474 1474 1474 1474 1474 1474 1473 1473 1472 1472 1471 1470 1469 1468 1467 1466 1465 1464 1463 1462 1461 1460 1459 1459 1458 1457 1455 1454 1453 1453
1465 1466 1467 1468 1469 1470 1470 1471 1472 1473 1474 1474 1475 1475 1475 1475 1475 1475 1475 1474 1474 1473 1473 1472 1471 1470 1469 1468 1467 1466 1464 1463 1462 1461 1460 1459 1458 1456 1455 1454 1453 1452 1451
1463 1464 1465 1466 1467 1468 1470 1471 1472 1473 1474 1475 1475 1475 1476 1476 1476 1476 1476 1475 1475 1474 1473 1472 1471 1470 1469 1468 1467 1466 1464 1463 1461 1460 1459 1458 1457 1455 1454 1452 1451 1450 1449
1461 1463 1464 1465 1466 1467 1469 1470 1471 1473 1474 1475 1475 1476 1476 1476 1476 1476 1476 1475 1475 1474 1473 1472 1471 1470 1469 1468 1466 1465 1463 1462 1461 1459 1458 1457 1455 1454 1452 1451 1450 1448 1447
1459 1461 1462 1463 1465 1466 1468 1469 1471 1472 1473 1474 1475 1476 1476 1476 1476 1476 1476 1475 1475 1474 1473 1472 1471 1470 1469 1467 1466 1464 1462 1461 1459 1458 1456 1455 1454 1452 1451 1449 1448 1447 1445
1457 1458 1460 1461 1463 1465 1466 1468 1470 1471 1472 1474 1474 1475 1475 1476 1476 1476 1475 1475 1474 1474 1473 1472 1470 1469 1468 1466 1465 1463 1461 1459 1458 1456 1455 1453 1452 1451 1449 1448 1446 1444 1443
1454 1456 1458 1459 1461 1463 1465 1467 1468 1470 1471 1472 1473 1474 1474 1475 1475 1475 1474 1474 1474 1473 1472 1470 1469 1468 1467 1465 1463 1461 1459 1458 1456 1455 1453 1452 1450 1448 1447 1445 1443 1442 1440